sat.trackr.live / text

‹ back to catalog

BANDWAGON-2 OBJECT AD

NORAD 62404 · 2024-247AD

PAYLOAD ACTIVE UNKNOWN

§ Identity

Operator
Country
TBD
Launch date
2024-12-21
Launch site
AFWTR
Launch vehicle
Mass (kg)
RCS (m²)

External: N2YO · Heavens-Above · Gunter

§ Orbital elements

Epoch: 2026-05-25T00:17:28.572000Z

Period
92.92 min
Inclination
44.9961°
Eccentricity
0.0007461
Mean motion
15.49743557 rev/d
Perigee alt
412.4 km
Apogee alt
422.5 km
Semi-major
6,795.6 km
B*
6.9464e-4
RAAN
21.9261°
Arg perigee
168.9270°
Mean anomaly
191.1787°
Rev number
7,986

§ Raw data

BANDWAGON-2 OBJECT AD1 62404U 24247AD  26145.01213625  .00039350  00000+0  69464-3 0  99942 62404  44.9961  21.9261 0007461 168.9270 191.1787 15.49743557 79867

JSON: /api/v1/satellites/62404 · /tle

For live sub-satellite position, see the globe view (requires WebGL).

§ Visibility from observer

Set your observer location to see the next 7 days of passes ≥ 10°. The values pass through the URL so the page stays shareable.

No JS? Fill the form by hand. The geolocation button needs JavaScript.